Waupaca, WI

2:05 PM CDT on July 26, 2017 (GMT -0500)
Waupaca Municipal

Weather History for KPCZ - November, 2011

Change the Weather History Date:

Friday, November 18, 2011

  Actual Average Record
Temperature  
Mean Temperature 36 °F -  
Max Temperature 46 °F 44 °F 71 °F (1953)
Min Temperature 26 °F 26 °F 5 °F (1959)
Degree Days  
Heating Degree Days 29    
Moisture  
Dew Point 22 °F    
Average Humidity 57    
Maximum Humidity 80    
Minimum Humidity 39    
Precipitation  
Precipitation 0.00 in - - ()
Sea Level Pressure  
Sea Level Pressure 29.84 in    
Wind  
Wind Speed 7 mph (South)    
Max Wind Speed 21 mph    
Max Gust Speed 26 mph    
Visibility 10 miles    
Events      
Averages and records for this station are not official NWS values.
T = Trace of Precipitation, MM = Missing Value Source: NWS Daily Summary

Daily Weather History Graph

Daily Weather History Graph

Search for Another Location

Airport or City:

Trip Planner

Search our weather history database for the weather conditions in past years. The results will help you decide how hot, cold, wet, or windy it might be!

Date:

Astronomy

Nov. 18, 2011 Rise Set
Actual Time 6:55 AM CST 4:26 PM CST
Civil Twilight 6:23 AM CST 4:58 PM CST
Nautical Twilight 5:48 AM CST 5:33 PM CST
Astronomical Twilight 5:14 AM CST 6:07 PM CST
Moon No Moon Rise 12:28 PM CST (11/18)
Length of Visible Light 10h 34m
Length of Day
9h 30m
Waning Gibbous, 49% of the Moon is Illuminated
Nov 18
Waning Gibbous
Nov 25
New
Dec 2
First Quarter
Dec 10
Full
Dec 17
Last Quarter

Hourly Weather History & Observations

Time (CST) Temp. Windchill Dew Point Humidity Pressure Visibility Wind Dir Wind Speed Gust Speed Precip Events Conditions
12:15 AM 26.6 °F 22.6 °F 15.8 °F 64% 30.09 in 10.0 mi SE 3.5 mph - N/A   Mostly Cloudy
12:35 AM 26.6 °F 21.2 °F 15.8 °F 64% 30.07 in 10.0 mi SE 4.6 mph - N/A   Scattered Clouds
12:55 AM 26.6 °F - 15.8 °F 64% 30.06 in 10.0 mi Calm Calm - N/A   Scattered Clouds
1:15 AM 26.6 °F 21.2 °F 15.8 °F 64% 30.05 in 10.0 mi SE 4.6 mph - N/A   Scattered Clouds
1:35 AM 26.6 °F 21.2 °F 17.6 °F 69% 30.04 in 10.0 mi SE 4.6 mph - N/A   Mostly Cloudy
1:55 AM 26.6 °F 19.1 °F 17.6 °F 69% 30.02 in 10.0 mi SE 6.9 mph - N/A   Mostly Cloudy
2:15 AM 28.4 °F 22.2 °F 17.6 °F 64% 30.01 in 10.0 mi SE 5.8 mph - N/A   Scattered Clouds
2:35 AM 28.4 °F 22.2 °F 17.6 °F 64% 30.01 in 10.0 mi SE 5.8 mph - N/A   Scattered Clouds
3:15 AM 30.2 °F 22.6 °F 17.6 °F 60% 29.97 in 10.0 mi SE 8.1 mph - N/A   Clear
3:35 AM 30.2 °F 23.4 °F 19.4 °F 64% 29.96 in 10.0 mi SE 6.9 mph - N/A   Clear
4:15 AM 30.2 °F 23.4 °F 19.4 °F 64% 29.94 in 10.0 mi SSE 6.9 mph - N/A   Clear
4:35 AM 30.2 °F 23.4 °F 19.4 °F 64% 29.93 in 10.0 mi SSE 6.9 mph - N/A   Clear
4:55 AM 32.0 °F 24.2 °F 21.2 °F 64% 29.92 in 10.0 mi SSE 9.2 mph - N/A   Scattered Clouds
5:35 AM 32.0 °F 24.8 °F 21.2 °F 64% 29.91 in 10.0 mi South 8.1 mph - N/A   Scattered Clouds
5:55 AM 32.0 °F 23.6 °F 21.2 °F 64% 29.89 in 10.0 mi South 10.4 mph 16.1 mph N/A   Mostly Cloudy
6:15 AM 32.0 °F 24.2 °F 21.2 °F 64% 29.89 in 10.0 mi South 9.2 mph - N/A   Scattered Clouds
6:35 AM 32.0 °F 24.8 °F 21.2 °F 64% 29.89 in 10.0 mi South 8.1 mph - N/A   Clear
6:55 AM 32.0 °F 24.8 °F 21.2 °F 64% 29.89 in 10.0 mi South 8.1 mph - N/A   Clear
7:35 AM 32.0 °F 24.2 °F 21.2 °F 64% 29.89 in 10.0 mi South 9.2 mph - N/A   Clear
7:55 AM 32.0 °F 24.8 °F 21.2 °F 64% 29.89 in 10.0 mi South 8.1 mph - N/A   Clear
8:15 AM 32.0 °F 25.6 °F 21.2 °F 64% 29.88 in 10.0 mi South 6.9 mph - N/A   Clear
8:35 AM 33.8 °F 26.4 °F 21.2 °F 60% 29.87 in 10.0 mi South 9.2 mph - N/A   Clear
8:55 AM 35.6 °F 28.0 °F 21.2 °F 56% 29.86 in 10.0 mi South 10.4 mph - N/A   Clear
9:35 AM 39.2 °F 30.2 °F 21.2 °F 49% 29.84 in 10.0 mi SSW 17.3 mph 24.2 mph N/A   Clear
9:55 AM 41.0 °F 32.8 °F 21.2 °F 45% 29.83 in 10.0 mi SSW 16.1 mph 26.5 mph N/A   Clear
10:15 AM 41.0 °F 32.5 °F 21.2 °F 45% 29.82 in 10.0 mi SSW 17.3 mph 25.3 mph N/A   Clear
10:35 AM 41.0 °F 33.1 °F 21.2 °F 45% 29.82 in 10.0 mi SSW 15.0 mph 25.3 mph N/A   Scattered Clouds
10:55 AM 42.8 °F 34.8 °F 21.2 °F 42% 29.81 in 10.0 mi SSW 17.3 mph 25.3 mph N/A   Scattered Clouds
11:15 AM 44.6 °F 37.8 °F 21.2 °F 39% 29.81 in 10.0 mi SSW 15.0 mph 24.2 mph N/A   Scattered Clouds
11:35 AM 44.6 °F 38.1 °F 21.2 °F 39% 29.79 in 10.0 mi SSW 13.8 mph 20.7 mph N/A   Clear
11:55 AM 44.6 °F 38.8 °F 23.0 °F 43% 29.77 in 10.0 mi SSW 11.5 mph 20.7 mph N/A   Scattered Clouds
12:15 PM 46.4 °F 38.7 °F 23.0 °F 40% 29.77 in 10.0 mi SSW 20.7 mph 25.3 mph N/A   Scattered Clouds
12:35 PM 44.6 °F 38.8 °F 23.0 °F 43% 29.76 in 10.0 mi SSW 11.5 mph - N/A   Clear
12:55 PM 46.4 °F 40.1 °F 23.0 °F 40% 29.75 in 10.0 mi SSW 15.0 mph 20.7 mph N/A   Clear
1:35 PM 46.4 °F 39.8 °F 23.0 °F 40% 29.72 in 10.0 mi SSW 16.1 mph 24.2 mph N/A   Clear
1:55 PM 46.4 °F 40.7 °F 23.0 °F 40% 29.72 in 10.0 mi SSW 12.7 mph - N/A   Clear
2:15 PM 46.4 °F 39.8 °F 23.0 °F 40% 29.72 in 10.0 mi SSW 16.1 mph 24.2 mph N/A   Clear
2:35 PM 46.4 °F 41.5 °F 23.0 °F 40% 29.73 in 10.0 mi SSW 10.4 mph 18.4 mph N/A   Clear
2:55 PM 46.4 °F 41.1 °F 24.8 °F 43% 29.73 in 10.0 mi SSW 11.5 mph 17.3 mph N/A   Clear
3:15 PM 46.4 °F 40.7 °F 24.8 °F 43% 29.74 in 10.0 mi SW 12.7 mph - N/A   Clear
3:55 PM 44.6 °F 39.7 °F 24.8 °F 46% 29.73 in 10.0 mi SSW 9.2 mph - N/A   Clear
4:15 PM 44.6 °F 38.8 °F 24.8 °F 46% 29.74 in 10.0 mi SSW 11.5 mph 17.3 mph N/A   Clear
4:35 PM 44.6 °F 39.2 °F 24.8 °F 46% 29.75 in 10.0 mi SSW 10.4 mph - N/A   Clear
4:55 PM 41.0 °F 37.1 °F 24.8 °F 53% 29.76 in 10.0 mi SSW 5.8 mph - N/A   Clear
5:15 PM 41.0 °F 38.0 °F 24.8 °F 53% 29.76 in 10.0 mi South 4.6 mph - N/A   Clear
5:55 PM 37.4 °F - 24.8 °F 60% 29.77 in 10.0 mi Calm Calm - N/A   Clear
6:15 PM 35.6 °F - 24.8 °F 65% 29.76 in 10.0 mi Calm Calm - N/A   Clear
6:35 PM 33.8 °F - 26.6 °F 75% 29.76 in 10.0 mi Calm Calm - N/A   Clear
6:55 PM 33.8 °F - 24.8 °F 70% 29.76 in 10.0 mi Calm Calm - N/A   Clear
7:15 PM 33.8 °F - 26.6 °F 75% 29.76 in 10.0 mi Calm Calm - N/A   Clear
7:55 PM 33.8 °F - 26.6 °F 75% 29.76 in 10.0 mi Calm Calm - N/A   Clear
8:15 PM 33.8 °F - 26.6 °F 75% 29.76 in 10.0 mi Calm Calm - N/A   Clear
8:35 PM 33.8 °F - 26.6 °F 75% 29.76 in 10.0 mi Calm Calm - N/A   Clear
8:55 PM 32.0 °F - 26.6 °F 80% 29.76 in 10.0 mi Calm Calm - N/A   Clear
9:15 PM 33.8 °F - 26.6 °F 75% 29.76 in 10.0 mi Calm Calm - N/A   Clear
10:15 PM 33.8 °F - 26.6 °F 75% 29.76 in 10.0 mi Calm Calm - N/A   Clear
10:35 PM 33.8 °F - 26.6 °F 75% 29.76 in 10.0 mi Calm Calm - N/A   Clear
10:55 PM 33.8 °F 29.6 °F 24.8 °F 70% 29.76 in 10.0 mi South 4.6 mph - N/A   Clear
11:35 PM 35.6 °F 31.7 °F 24.8 °F 65% 29.76 in 10.0 mi SSW 4.6 mph - N/A   Clear
11:55 PM 35.6 °F 31.7 °F 24.8 °F 65% 29.76 in 10.0 mi South 4.6 mph - N/A   Clear